When you browse on this site, cookies collect data to enhance your experience and personalize the content and advertising you see.
Visit our Privacy Policy to learn more. By continuing to use the site, you agree to this use of cookies and data.
  • Em Portugal
  • Lista de países
  • Para 7 dias
  • Temperatura da água
  • Mapas de satélite
  • Mapa do tempo
  • Widgets de tempo
  • user-avatar
    Iniciar Sessão

    Previsão horária em Sidi Bu-l-Abbas

    Hoje, 27 Maio, Segunda-feira

    Tempo Temperatura Precipitação Vento Pressão Humidade
    00:00 +17°C° 0 mm 0 m/s 719 mmHg 70%
    01:00 +17°C° 0 mm 0 m/s 719 mmHg 70%
    02:00 +19°C° 0 mm 1 m/s 719 mmHg 71%
    03:00 +18°C° 0 mm 1 m/s 719 mmHg 72%
    04:00 +19°C° 0 mm 1 m/s 719 mmHg 68%
    05:00 +20°C° 0 mm 1 m/s 719 mmHg 64%
    06:00 +20°C° 0 mm 1 m/s 719 mmHg 61%
    07:00 +20°C° 0 mm 0 m/s 719 mmHg 52%
    08:00 +21°C° 0 mm 0 m/s 719 mmHg 44%
    09:00 +23°C° 0 mm 0 m/s 719 mmHg 35%
    10:00 +26°C° 0 mm 1 m/s 719 mmHg 32%
    11:00 +27°C° 0 mm 2 m/s 719 mmHg 29%
    12:00 +28°C° 0 mm 2 m/s 719 mmHg 27%
    13:00 +29°C° 0 mm 3 m/s 719 mmHg 26%
    14:00 +30°C° 0 mm 4 m/s 719 mmHg 25%
    15:00 +30°C° 0 mm 5 m/s 718 mmHg 24%
    16:00 +29°C° 0 mm 4 m/s 718 mmHg 25%
    17:00 +29°C° 0 mm 4 m/s 718 mmHg 26%
    18:00 +28°C° 0 mm 4 m/s 718 mmHg 27%
    19:00 +27°C° 0 mm 3 m/s 718 mmHg 30%
    20:00 +26°C° 0 mm 2 m/s 718 mmHg 33%
    21:00 +25°C° 0 mm 1 m/s 718 mmHg 36%
    22:00 +24°C° 0 mm 1 m/s 718 mmHg 37%
    23:00 +23°C° 0 mm 1 m/s 718 mmHg 39%

    Amanhã, 28 Maio, Terça-feira

    Tempo Temperatura Precipitação Vento Pressão Humidade
    00:00 +23°C° 0 mm 1 m/s 718 mmHg 41%
    01:00 +22°C° 0 mm 1 m/s 718 mmHg 42%
    02:00 +22°C° 0 mm 1 m/s 718 mmHg 43%
    03:00 +21°C° 0 mm 1 m/s 717 mmHg 44%
    04:00 +20°C° 0 mm 0 m/s 718 mmHg 43%
    05:00 +20°C° 0 mm 0 m/s 718 mmHg 43%
    06:00 +21°C° 0 mm 0 m/s 718 mmHg 43%
    07:00 +23°C° 0 mm 0 m/s 718 mmHg 36%
    08:00 +27°C° 0 mm 1 m/s 719 mmHg 29%
    09:00 +29°C° 0 mm 1 m/s 719 mmHg 22%
    10:00 +30°C° 0 mm 1 m/s 719 mmHg 20%
    11:00 +31°C° 0 mm 1 m/s 719 mmHg 18%
    12:00 +32°C° 0 mm 2 m/s 719 mmHg 17%
    13:00 +33°C° 0 mm 3 m/s 719 mmHg 17%
    14:00 +34°C° 0 mm 4 m/s 719 mmHg 17%
    15:00 +34°C° 0 mm 5 m/s 719 mmHg 18%
    16:00 +33°C° 0 mm 5 m/s 719 mmHg 21%
    17:00 +32°C° 0 mm 5 m/s 719 mmHg 24%
    18:00 +30°C° 0 mm 5 m/s 719 mmHg 27%
    19:00 +28°C° 0 mm 3 m/s 719 mmHg 30%
    20:00 +27°C° 0 mm 2 m/s 719 mmHg 33%
    21:00 +26°C° 0 mm 1 m/s 720 mmHg 37%
    22:00 +25°C° 0 mm 1 m/s 720 mmHg 39%
    23:00 +24°C° 0 mm 1 m/s 720 mmHg 41%

    Depois de amanhã, 29 Maio, Quarta-feira

    Tempo Temperatura Precipitação Vento Pressão Humidade
    00:00 +23°C° 0 mm 1 m/s 720 mmHg 44%
    01:00 +23°C° 0 mm 1 m/s 720 mmHg 47%
    02:00 +22°C° 0 mm 1 m/s 720 mmHg 50%
    03:00 +19°C° 0 mm 0 m/s 719 mmHg 53%
    04:00 +21°C° 0 mm 1 m/s 720 mmHg 53%
    05:00 +22°C° 0 mm 1 m/s 720 mmHg 54%
    06:00 +22°C° 0 mm 1 m/s 720 mmHg 54%
    07:00 +23°C° 0 mm 1 m/s 721 mmHg 48%
    08:00 +25°C° 0 mm 2 m/s 721 mmHg 42%
    09:00 +26°C° 0 mm 2 m/s 721 mmHg 36%
    10:00 +28°C° 0 mm 3 m/s 722 mmHg 33%
    11:00 +29°C° 0 mm 4 m/s 722 mmHg 31%
    12:00 +30°C° 0 mm 5 m/s 722 mmHg 29%
    13:00 +30°C° 0 mm 5 m/s 722 mmHg 29%
    14:00 +30°C° 0 mm 6 m/s 722 mmHg 30%
    15:00 +30°C° 0 mm 6 m/s 721 mmHg 30%
    16:00 +29°C° 0 mm 6 m/s 721 mmHg 32%
    17:00 +28°C° 0 mm 6 m/s 721 mmHg 34%
    18:00 +26°C° 0 mm 6 m/s 721 mmHg 36%
    19:00 +25°C° 0 mm 4 m/s 722 mmHg 39%
    20:00 +24°C° 0 mm 3 m/s 722 mmHg 42%
    21:00 +23°C° 0 mm 2 m/s 723 mmHg 45%
    22:00 +21°C° 0 mm 2 m/s 723 mmHg 47%
    23:00 +22°C° 0 mm 1 m/s 723 mmHg 50%

    30 Maio, Quinta-feira

    Tempo Temperatura Precipitação Vento Pressão Humidade
    00:00 +21°C° 0 mm 1 m/s 723 mmHg 53%
    01:00 +20°C° 0 mm 1 m/s 723 mmHg 56%
    02:00 +20°C° 0 mm 1 m/s 723 mmHg 60%
    03:00 +19°C° 0 mm 1 m/s 722 mmHg 63%
    04:00 +19°C° 0 mm 1 m/s 723 mmHg 63%
    05:00 +19°C° 0 mm 1 m/s 723 mmHg 63%
    06:00 +19°C° 0 mm 1 m/s 723 mmHg 64%
    07:00 +20°C° 0 mm 1 m/s 723 mmHg 55%
    08:00 +22°C° 0 mm 1 m/s 724 mmHg 47%
    09:00 +24°C° 0 mm 1 m/s 724 mmHg 39%
    10:00 +25°C° 0 mm 2 m/s 724 mmHg 34%
    11:00 +27°C° 0 mm 3 m/s 724 mmHg 30%
    12:00 +29°C° 0 mm 3 m/s 724 mmHg 26%
    13:00 +29°C° 0 mm 4 m/s 724 mmHg 26%
    14:00 +30°C° 0 mm 4 m/s 723 mmHg 26%
    15:00 +30°C° 0 mm 5 m/s 723 mmHg 27%
    16:00 +29°C° 0 mm 5 m/s 723 mmHg 29%
    17:00 +28°C° 0 mm 5 m/s 723 mmHg 32%
    18:00 +27°C° 0 mm 4 m/s 723 mmHg 34%
    19:00 +26°C° 0 mm 3 m/s 723 mmHg 39%
    20:00 +25°C° 0 mm 2 m/s 724 mmHg 43%
    21:00 +24°C° 0 mm 1 m/s 724 mmHg 47%
    22:00 +23°C° 0 mm 1 m/s 724 mmHg 50%
    23:00 +22°C° 0 mm 1 m/s 723 mmHg 53%

    31 Maio, Sexta-feira

    Tempo Temperatura Precipitação Vento Pressão Humidade
    00:00 +20°C° 0 mm 0 m/s 723 mmHg 56%
    01:00 +19°C° 0 mm 0 m/s 723 mmHg 58%
    02:00 +20°C° 0 mm 1 m/s 723 mmHg 60%
    03:00 +20°C° 0 mm 1 m/s 723 mmHg 61%
    04:00 +20°C° 0 mm 1 m/s 723 mmHg 60%
    05:00 +21°C° 0 mm 1 m/s 723 mmHg 59%
    06:00 +19°C° 0 mm 0 m/s 724 mmHg 59%
    07:00 +23°C° 0 mm 1 m/s 724 mmHg 52%
    08:00 +25°C° 0 mm 1 m/s 724 mmHg 45%
    09:00 +26°C° 0 mm 1 m/s 724 mmHg 38%
    10:00 +28°C° 0 mm 2 m/s 724 mmHg 34%
    11:00 +30°C° 0 mm 3 m/s 724 mmHg 31%
    12:00 +33°C° 0 mm 4 m/s 724 mmHg 27%
    13:00 +33°C° 0 mm 5 m/s 724 mmHg 27%
    14:00 +34°C° 0 mm 6 m/s 723 mmHg 26%
    15:00 +34°C° 0 mm 6 m/s 723 mmHg 25%
    16:00 +33°C° 0 mm 6 m/s 723 mmHg 26%
    17:00 +32°C° 0 mm 6 m/s 723 mmHg 27%
    18:00 +30°C° 0 mm 5 m/s 722 mmHg 28%
    19:00 +28°C° 0 mm 4 m/s 723 mmHg 31%
    20:00 +27°C° 0 mm 3 m/s 723 mmHg 35%
    21:00 +26°C° 0 mm 1 m/s 723 mmHg 38%
    22:00 +25°C° 0 mm 1 m/s 723 mmHg 41%
    23:00 +22°C° 0 mm 0 m/s 723 mmHg 43%

    1 Junho, Sábado

    Tempo Temperatura Precipitação Vento Pressão Humidade
    00:00 +21°C° 0 mm 0 m/s 723 mmHg 46%
    01:00 +21°C° 0 mm 0 m/s 722 mmHg 47%
    02:00 +20°C° 0 mm 0 m/s 722 mmHg 49%
    03:00 +20°C° 0 mm 0 m/s 722 mmHg 50%
    04:00 +20°C° 0 mm 0 m/s 722 mmHg 48%
    05:00 +21°C° 0 mm 0 m/s 722 mmHg 47%
    06:00 +22°C° 0 mm 0 m/s 722 mmHg 45%
    07:00 +26°C° 0 mm 1 m/s 723 mmHg 38%
    08:00 +28°C° 0 mm 1 m/s 723 mmHg 31%
    09:00 +30°C° 0 mm 2 m/s 723 mmHg 24%
    10:00 +31°C° 0 mm 3 m/s 723 mmHg 22%
    11:00 +34°C° 0 mm 4 m/s 723 mmHg 20%
    12:00 +35°C° 0 mm 5 m/s 723 mmHg 18%
    13:00 +36°C° 0 mm 6 m/s 723 mmHg 17%
    14:00 +36°C° 0 mm 6 m/s 722 mmHg 16%
    15:00 +38°C° 0 mm 7 m/s 722 mmHg 16%
    16:00 +36°C° 0 mm 7 m/s 722 mmHg 16%
    17:00 +34°C° 0 mm 7 m/s 722 mmHg 17%
    18:00 +33°C° 0 mm 6 m/s 722 mmHg 17%
    19:00 +32°C° 0 mm 5 m/s 722 mmHg 21%
    20:00 +29°C° 0 mm 4 m/s 722 mmHg 25%
    21:00 +28°C° 0 mm 2 m/s 723 mmHg 28%
    22:00 +27°C° 0 mm 2 m/s 723 mmHg 32%
    23:00 +26°C° 0 mm 2 m/s 722 mmHg 35%
    Mostrar mais